Change the Weather History Date:

Wednesday, October 10, 2012

  Actual Average Record
Temperature  
Mean Temperature 60 °F 58 °F  
Max Temperature 69 °F 69 °F 93 °F (1939)
Min Temperature 50 °F 47 °F 34 °F (1979)
Degree Days  
Heating Degree Days 5 8  
Month to date heating degree days 55 65  
Since 1 July heating degree days 83 118  
Cooling Degree Days 0 1  
Month to date cooling degree days 24 11  
Year to date cooling degree days 1565 1156  
Growing Degree Days 12 (Base 50)    
Moisture  
Dew Point 51 °F    
Average Humidity 71    
Maximum Humidity 100    
Minimum Humidity 42    
Precipitation  
Precipitation T in 0.11 in 4.38 in (1922)
Month to date precipitation 0.79 1.13  
Year to date precipitation 25.47 33.01  
Snow  
Snow 0.00 in 0.00 in 0.30 in (1979)
Month to date snowfall 0.0 0.0  
Since 1 July snowfall 0.0 0.0  
Snow Depth 0.00 in    
Sea Level Pressure  
Sea Level Pressure 29.98 in    
Wind  
Wind Speed 6 mph (West)    
Max Wind Speed 21 mph    
Max Gust Speed 30 mph    
Visibility 5 miles    
Events Rain    
T = Trace of Precipitation, MM = Missing Value Source: NWS Daily Summary

Daily Weather History Graph

Daily Weather History Graph

Search for Another Location

Airport or City:

Trip Planner

Search our weather history database for the weather conditions in past years. The results will help you decide how hot, cold, wet, or windy it might be!

Date:

Astronomy

Oct. 10, 2012 Rise Set
Actual Time 7:11 AM EDT 6:34 PM EDT
Civil Twilight 6:45 AM EDT 7:01 PM EDT
Nautical Twilight 6:14 AM EDT 7:32 PM EDT
Astronomical Twilight 5:43 AM EDT 8:03 PM EDT
Moon 1:48 AM EDT (10/10) 3:34 PM EDT (10/10)
Length of Visible Light 12h 16m
Length of Day
11h 22m
Waning Crescent, 27% of the Moon is Illuminated
Oct 10
Waning Crescent
Oct 15
New
Oct 21
First Quarter
Oct 29
Full
Nov 6
Last Quarter

Hourly Weather History & Observations

Time (EDT) Temp. Dew Point Humidity Pressure Visibility Wind Dir Wind Speed Gust Speed Precip Events Conditions
12:21 AM 55.4 °F 53.6 °F 94% 30.06 in 3.0 mi NW 3.5 mph - 0.00 in Rain Light Rain
12:54 AM 55.0 °F 54.0 °F 96% 30.05 in 3.0 mi Calm Calm - N/A   Overcast
1:00 AM 55.4 °F 53.6 °F 94% 30.05 in 2.5 mi Calm Calm - 0.00 in   Light Drizzle
1:32 AM 55.4 °F 53.6 °F 94% 30.04 in 1.8 mi Calm Calm - 0.00 in   Overcast
1:54 AM 55.9 °F 54.0 °F 93% 30.03 in 1.8 mi Calm Calm - 0.00 in   Overcast
2:54 AM 55.9 °F 54.0 °F 93% 30.02 in 1.0 mi Calm Calm - 0.00 in   Light Drizzle
3:54 AM 55.0 °F 54.0 °F 96% 30.00 in 1.0 mi Calm Calm - 0.00 in   Light Drizzle
4:51 AM 55.4 °F 55.4 °F 100% 29.99 in 2.0 mi Calm Calm - 0.00 in   Overcast
4:54 AM 55.9 °F 55.0 °F 97% 29.99 in 2.0 mi Calm Calm - 0.00 in   Overcast
5:01 AM 55.4 °F 55.4 °F 100% 29.99 in 3.0 mi Calm Calm - N/A   Overcast
5:32 AM 55.4 °F 53.6 °F 94% 29.99 in 2.5 mi Calm Calm - N/A   Overcast
5:54 AM 55.0 °F 55.0 °F 100% 29.99 in 2.0 mi Calm Calm - N/A   Overcast
6:54 AM 55.0 °F 54.0 °F 96% 29.99 in 2.5 mi West 4.6 mph - N/A   Overcast
7:34 AM 55.4 °F 55.4 °F 100% 29.99 in 1.8 mi West 4.6 mph - N/A   Overcast
7:54 AM 55.9 °F 55.0 °F 97% 29.99 in 1.8 mi Calm Calm - N/A   Overcast
7:59 AM 55.4 °F 55.4 °F 100% 29.99 in 1.5 mi Calm Calm - N/A   Mostly Cloudy
8:06 AM 55.4 °F 55.4 °F 100% 29.99 in 1.8 mi Calm Calm - N/A   Mostly Cloudy
8:34 AM 55.4 °F 55.4 °F 100% 29.99 in 2.0 mi Calm Calm - N/A   Mostly Cloudy
8:54 AM 55.9 °F 55.0 °F 97% 30.00 in 2.5 mi West 3.5 mph - N/A   Mostly Cloudy
9:19 AM 59.0 °F 55.4 °F 88% 29.99 in 3.0 mi WSW 5.8 mph - N/A   Scattered Clouds
9:54 AM 60.1 °F 54.0 °F 80% 29.99 in 6.0 mi West 6.9 mph - N/A   Haze
10:54 AM 62.1 °F 51.1 °F 67% 29.97 in 10.0 mi West 11.5 mph - N/A   Scattered Clouds
11:54 AM 63.0 °F 50.0 °F 63% 29.96 in 10.0 mi West 11.5 mph - N/A   Mostly Cloudy
12:54 PM 64.9 °F 48.0 °F 54% 29.95 in 10.0 mi West 12.7 mph - N/A   Scattered Clouds
1:54 PM 66.9 °F 44.1 °F 44% 29.90 in 10.0 mi West 10.4 mph - N/A   Scattered Clouds
2:54 PM 68.0 °F 44.1 °F 42% 29.89 in 10.0 mi West 8.1 mph 17.3 mph N/A   Scattered Clouds
3:54 PM 68.0 °F 45.0 °F 43% 29.87 in 10.0 mi West 10.4 mph - N/A   Scattered Clouds
4:54 PM 66.9 °F 45.0 °F 45% 29.87 in 10.0 mi West 9.2 mph - N/A   Scattered Clouds
5:54 PM 66.0 °F 46.0 °F 48% 29.88 in 10.0 mi SSW 4.6 mph - N/A   Scattered Clouds
6:54 PM 64.0 °F 48.0 °F 56% 29.90 in 10.0 mi Calm Calm - N/A   Overcast
7:54 PM 64.0 °F 46.0 °F 52% 29.95 in 10.0 mi WNW 12.7 mph 23.0 mph N/A   Scattered Clouds
8:54 PM 60.1 °F 41.0 °F 49% 29.99 in 10.0 mi NW 20.7 mph 28.8 mph N/A   Scattered Clouds
9:54 PM 57.0 °F 41.0 °F 55% 30.03 in 10.0 mi WNW 13.8 mph 23.0 mph N/A   Clear
10:54 PM 54.0 °F 42.1 °F 64% 30.06 in 10.0 mi West 5.8 mph - N/A   Clear
11:54 PM 51.1 °F 42.1 °F 71% 30.09 in 10.0 mi West 3.5 mph - N/A   Clear